Miscellaneous Local Product
Issued by NWS North Platte, NE

Home | Current Version | Previous Version | Text Only | Print | Product List | Glossary On
Versions: 1 2 3 4 5 6 7 8 9 10 11 12 13 14 15 16 17 18 19 20 21 22 23 24 25 26 27 28 29 30 31 32 33 34 35 36 37 38 39 40 41 42 43 44 45 46 47 48 49 50
000
AXUS43 KLBF 060910
MISLBF


WESTERN AND NORTH CENTRAL NEBRASKA HOURLY WEATHER ROUNDUP
NATIONAL WEATHER SERVICE NORTH PLATTE NE
400 AM CDT MON JUL 06 2015

***STATIONS NOT REPORTING VARIABLES SUCH AS SKY/WEATHER OR
PRESSURE ARE PROVIDED BY THE NEBRASKA DEPARTMENT OF
ROADS...RAWS...AND APRS NETWORKS...AND ARE NOT UNDER
NATIONAL WEATHER SERVICE QUALITY CONTROL***

...OBSERVATIONS IN AND NEAR THE EASTERN PANHANDLE OF NEBRASKA...

CITY           SKY/WX    TMP DP  RH WIND       PRES   REMARKS
PINE RIDGE     LGT RAIN  60  57  89 N10       30.10R FOG
CHADRON        CLOUDY    60  58  92 N14       30.11S FOG
ALLIANCE       CLOUDY    61  59  93 N17       30.08R
SIDNEY         CLOUDY    63  60  90 N14       30.09R
WHITECLAY        N/A     59  57  94 SW9         N/A
CRESCENT LAKE    N/A     62  60  92 N12G18      N/A
BIG SPRINGS      N/A     66  62  87 NE7         N/A
$$

...OBSERVATIONS IN NORTH CENTRAL NEBRASKA...

CITY           SKY/WX    TMP DP  RH WIND       PRES   REMARKS
VALENTINE      CLOUDY    64  62  93 N14       29.97R
THEDFORD       DRIZZLE   64  63  94 N14G20    29.95F
AINSWORTH      LGT RAIN  64  64 100 N16       29.94S
O`NEILL        LGT RAIN  68  68  98 CALM      29.85F
ORD            CLOUDY    69  66  90 CALM      29.85R
BROKEN BOW     CLOUDY    69  65  86 N5        29.87R
VALENTINE NWR    N/A     63  62  96 N9G21       N/A
SPRINGVIEW       N/A     64  62  95 N7          N/A
HALSEY           N/A     64  64 100 N5G13       N/A
BREWSTER         N/A     69  68  97 NE20        N/A
ROSE             N/A     78  77  99 S12         N/A
NEWPORT          N/A     68  68  99 W10         N/A
CHAMBERS         N/A     68  66  94 CALM        N/A
EWING            N/A     68  66  94 CALM        N/A
$$

...OBSERVATIONS IN SOUTHWEST NEBRASKA AND FAR NORTHEAST COLORADO...

CITY           SKY/WX    TMP DP  RH WIND       PRES   REMARKS
WRAY           PTSUNNY   67  63  88 N18G24    30.00S
HOLYOKE        CLOUDY    66  63  88 N12       30.03R
IMPERIAL       CLOUDY    66  62  87 N14       29.97R
OGALLALA       CLOUDY    65  62  88 N13       30.00R
NORTH PLATTE   CLOUDY    66  63  90 N3        29.94R
MCCOOK         CLOUDY    70  67  90 NE9       29.87R
LEXINGTON      CLOUDY    70  66  88 N5        29.89R
PAXTON           N/A     66  63  90 N5          N/A
GOTHENBURG       N/A     69  61  77 CALM        N/A
CALLAWAY         N/A     66  65  96 NE5         N/A
$$

...NORTH PLATTE AREA...

CITY           SKY/WX    TMP DP  RH WIND       PRES   REMARKS
AIRPORT        CLOUDY    66  63  90 N3        29.94R
DOWNTOWN         N/A     66  63  91 CALM        N/A
HILLCREST        N/A     65  63  94 N18G26      N/A
$$

...SOME WEATHER OBSERVATIONS FROM AROUND THE REGION...

CITY           SKY/WX    TMP DP  RH WIND       PRES   REMARKS
DENVER         CLOUDY    63  58  83 N6        30.16R
LARAMIE        CLOUDY    57  55  93 W3        30.24S
CHEYENNE       CLOUDY    57  56  96 NE10      30.19S FOG
SCOTTSBLUFF    CLOUDY    62  59  90 N6        30.11R
RAPID CITY     LGT RAIN  60  56  86 N12       30.13R FOG
PIERRE         CLOUDY    64  62  93 N13       29.97S FOG
WINNER         LGT RAIN  66  64  93 N15       29.94S FOG
SIOUX FALLS    LGT RAIN  69  69 100 N14       29.81F
OMAHA          CLOUDY    80  73  79 SW8       29.81R
GRAND ISLAND   CLOUDY    69  67  93 NE10      29.89R
KANSAS CITY    CLOUDY    75  71  87 S12       29.89S
WICHITA        MOCLDY    79  69  71 S13       29.87F
HAYS           CLOUDY    79  63  57 S18G26    29.82F
LIBERAL        CLEAR     75  63  64 S10       29.90S
GOODLAND       CLOUDY    68  66  93 N17G23    29.93S
$$



USA.gov is the U.S. government's official web portal to all federal, state and local government web resources and services.